Regional Weather Roundup
Issued by NWS

Home | Current Version | Previous Version | Text Only | Print | Product List | Glossary On
Versions: 1 2 3 4 5 6 7 8 9 10 11 12 13 14 15 16 17 18 19 20 21 22 23 24 25 26 27 28 29 30 31 32 33 34 35 36 37 38 39 40 41 42 43 44 45 46 47 48 49 50
000
ASCA44 KEWX 251020
RWRMX

LATIN AMERICA AND CARIBBEAN REGIONAL WEATHER ROUNDUP
NATIONAL WEATHER SERVICE AUSTIN/SAN ANTONIO TX
400 AM CST SAT FEB 25 2017

NOTE: "FAIR" INDICATED FEW OR NO CLOUDS BELOW 12,000 FEET WITH NO
SIGNIFICANT WEATHER AND/OR OBSTRUCTIONS TO VISIBILITY.

BAJA CALIFORNIA

CITY           SKY/WX    TMP DP  RH WIND       PRES   REMARKS
S.J. DEL CABO    N/A    N/A N/A N/A MISG        N/A
TIJUANA        CLEAR     45  37  76 CALM      30.16F

NORTHWESTERN MEXICO

CITY           SKY/WX    TMP DP  RH WIND       PRES   REMARKS
HERMOSILLO     CLEAR     52  43  71 CALM      30.06F

NORTHEASTERN MEXICO

CITY           SKY/WX    TMP DP  RH WIND       PRES   REMARKS
MONCLOVA         N/A    N/A N/A N/A MISG        N/A
MONTERREY      CLEAR     61  45  55 SE7       29.97S
REYNOSA          N/A    N/A N/A N/A MISG        N/A
CD. VICTORIA     N/A    N/A N/A N/A MISG        N/A

WESTERN MEXICO

CITY           SKY/WX    TMP DP  RH WIND       PRES   REMARKS
AGUASCALIENTES   N/A    N/A N/A N/A MISG        N/A
COLIMA           N/A    N/A N/A N/A MISG        N/A
DEL BAJIO        N/A    N/A N/A N/A MISG        N/A
GUADALAJARA    CLEAR     50  36  57 CALM      30.11S
MAZATLAN       CLEAR     57  57 100 NE6       29.89F
P. VALLARTA    CLEAR     61  61 100 N2        29.88F
URUAPAN          N/A    N/A N/A N/A MISG        N/A
ZACATECAS        N/A    N/A N/A N/A MISG        N/A

CENTRAL MEXICO

CITY           SKY/WX    TMP DP  RH WIND       PRES   REMARKS
CUERNAVACA       N/A    N/A N/A N/A MISG        N/A
MEXICO CITY    CLEAR     50  27  40 NE5       30.23F WCI  48
MORELIA        CLEAR     41  27  56 CALM      30.15R
POZA RICA        N/A    N/A N/A N/A MISG        N/A
QUERETARO      CLEAR     45  23  42 CALM      30.21S
S. LUIS POTOSI CLEAR     48  25  40 CALM      30.14S
TOLUCA         CLEAR     37  27  65 CALM      30.31S

SOUTHERN MEXICO

CITY           SKY/WX    TMP DP  RH WIND       PRES   REMARKS
ACAPULCO       CLEAR     68  66  94 CALM      29.85S
B. DE HUATULCO   N/A    N/A N/A N/A MISG        N/A
P. ESCONDIDO     N/A    N/A N/A N/A MISG        N/A
VERACRUZ       CLEAR     72  68  88 SE2       29.80S

YUCATAN PENINSULA

CITY           SKY/WX    TMP DP  RH WIND       PRES   REMARKS
CAMPECHE         N/A    N/A N/A N/A MISG        N/A
CANCUN         CLEAR     64  64 100 CALM      29.85F
CHETUMAL         N/A    N/A N/A N/A MISG        N/A
CD. DEL CARMEN   N/A    N/A N/A N/A MISG        N/A
COZUMEL        CLEAR     64  63  94 CALM      29.83R
MERIDA           N/A    N/A N/A N/A MISG        N/A
MINATITLAN       N/A    N/A N/A N/A MISG        N/A
TAPACHULA      CLEAR     70  68  94 CALM      29.85S

CENTRAL AMERICA

CITY           SKY/WX    TMP DP  RH WIND       PRES   REMARKS
MANAGUA        MOSUNNY   70  66  88 CALM      29.80S

CARIBBEAN

CITY           SKY/WX    TMP DP  RH WIND       PRES   REMARKS
ARUBA          PTCLDY    77  72  83 E6        29.89R
CURACAO        PTCLDY    75  72  88 SE5       29.92R
KINGSTON       PTCLDY    77  68  73 N6        29.89S
NASSAU         PTCLDY    72  68  88 CALM      29.88S
SAN JUAN       PTCLDY    72  66  83 S3        29.96R
SANTO DOMINGO  PTCLDY    73  68  83 VRB3      29.92R
ST. CROIX      PTCLDY    72  66  83 N5        29.96
ST. KITTS      PTCLDY    73  70  88 CALM      29.94
ST. MAARTEN    MOCLDY    77  73  88 E6        29.97R
ST. THOMAS     PTCLDY    73  70  88 CALM      29.95

$$




USA.gov is the U.S. government's official web portal to all federal, state and local government web resources and services.